User: anonymous   Login
Location: Unspecified
(0.0000°N, 0.0000°E)
Time: 07:09:47
(UTC+00:00)
Language:

PCSat - Orbit

View from above orbital plane
View from above orbital plane
View from above satellite
View from above satellite

Ground track
Ground track

The orbit data is extracted from the following two-line orbital elements,

1 26931U 01043C   18267.63538404 -.00000021 +00000-0 +23704-4 0  9990
2 26931 067.0525 332.8006 0007460 260.9290 099.0967 14.30517385886778
Epoch (UTC): 24 September 2018 15:14:57
Eccentricity: 0.0007460
inclination: 67.0525°
perigee height: 784 km
apogee height: 795 km
right ascension of ascending node: 332.8006°
argument of perigee: 260.9290°
revolutions per day: 14.30517385
mean anomaly at epoch: 99.0967°
orbit number at epoch: 88677

The dashed part of the orbit path shows where the satellite is in the earth's shadow,  

DLR